History for Ft Lauderdale, FL

Saturday, November 10, 2012 — View Current Conditions

Jump to Data:

Date:
Airport Code:
Recently Viewed Airport Codes: KFLL
Daily Summary
  Actual Average Record
Temperature
Mean Temperature 75°F 76°F  
Max Temperature 78°F 82°F 88°F (1958)
Min Temperature 71°F 70°F 48°F (1956)
Degree Days
Heating Degree Days 0 0  
Month to date heating degree days 2 0  
Since 1 July heating degree days 2 0  
Cooling Degree Days 10 11  
Month to date cooling degree days 60 121  
Year to date cooling degree days 4217 4315  
Growing Degree Days 24 (Base 50)    
Moisture
Dew Point 53°F    
Average Humidity 48    
Maximum Humidity 53    
Minimum Humidity 43    
Precipitation
Precipitation 0.00 in 0.10 in 1.12 in (1968)
Month to date precipitation 0.00 1.38  
Year to date precipitation 59.29 57.86  
Snow
Snow 0.00 in in in ()
Month to date snowfall 0.0  
Since 1 July snowfall 0.0  
Since 1 September snowfall 0.0  
Snow Depth 0.00 in    
Sea Level Pressure
Sea Level Pressure 30.20 in    
Wind
Wind Speed 14 mph (ENE)    
Max Wind Speed 21 mph    
Max Gust Speed 28 mph    
Visibility 10 miles    
Events      
T = Trace of Precipitation, MM = Missing Value Source: NWS Daily Summary

Show full METARS

(help) - Comma Delimited File

Hourly Observations

Time(EST) Temperature Dew Point Humidity Sea Level Pressure Visibility Wind Direction Wind Speed Gust Speed Precipitation Events Conditions
12:53 AM 71.1°F 51.1°F 49% 30.17 in 10.0 miles ENE 9.2 mph - N/A   Mostly Cloudy
1:53 AM 71.1°F 52.0°F 51% 30.16 in 10.0 miles East 15.0 mph 19.6 mph N/A   Mostly Cloudy
2:53 AM 71.1°F 51.1°F 49% 30.17 in 10.0 miles East 11.5 mph - N/A   Mostly Cloudy
3:53 AM 71.1°F 50.0°F 47% 30.17 in 10.0 miles ENE 11.5 mph - N/A   Mostly Cloudy
4:53 AM 71.1°F 50.0°F 47% 30.18 in 10.0 miles East 12.7 mph - N/A   Mostly Cloudy
5:53 AM 72.0°F 51.1°F 48% 30.19 in 10.0 miles East 10.4 mph - N/A   Mostly Cloudy
6:53 AM 71.1°F 51.1°F 49% 30.21 in 10.0 miles NE 11.5 mph - N/A   Mostly Cloudy
7:53 AM 72.0°F 53.1°F 51% 30.22 in 10.0 miles East 12.7 mph - N/A   Overcast
8:53 AM 73.0°F 54.0°F 51% 30.24 in 10.0 miles East 10.4 mph - N/A   Overcast
9:53 AM 73.9°F 53.1°F 48% 30.25 in 10.0 miles East 13.8 mph - N/A   Overcast
10:53 AM 73.9°F 55.0°F 52% 30.25 in 10.0 miles East 12.7 mph - N/A   Overcast
11:53 AM 77.0°F 53.1°F 43% 30.24 in 10.0 miles East 17.3 mph 23.0 mph N/A   Mostly Cloudy
12:53 PM 75.0°F 52.0°F 44% 30.22 in 10.0 miles East 15.0 mph 19.6 mph N/A   Scattered Clouds
1:53 PM 75.0°F 53.1°F 46% 30.19 in 10.0 miles ENE 16.1 mph - N/A   Mostly Cloudy
2:53 PM 75.9°F 52.0°F 43% 30.18 in 10.0 miles ENE 16.1 mph 21.9 mph N/A   Mostly Cloudy
3:53 PM 73.9°F 53.1°F 48% 30.18 in 10.0 miles ENE 18.4 mph 21.9 mph N/A   Mostly Cloudy
4:53 PM 73.9°F 53.1°F 48% 30.19 in 10.0 miles ENE 16.1 mph - N/A   Mostly Cloudy
5:53 PM 73.0°F 54.0°F 51% 30.20 in 10.0 miles ENE 15.0 mph 21.9 mph N/A   Mostly Cloudy
6:53 PM 73.0°F 55.0°F 53% 30.21 in 10.0 miles East 15.0 mph 23.0 mph N/A   Scattered Clouds
7:53 PM 73.0°F 55.9°F 55% 30.21 in 10.0 miles ENE 13.8 mph - N/A   Mostly Cloudy
8:53 PM 73.0°F 55.9°F 55% 30.22 in 10.0 miles ENE 17.3 mph 23.0 mph N/A   Mostly Cloudy
9:53 PM 73.9°F 55.9°F 53% 30.22 in 10.0 miles ENE 16.1 mph 20.7 mph N/A   Mostly Cloudy
10:53 PM 73.0°F 55.9°F 55% 30.21 in 10.0 miles ENE 13.8 mph - N/A   Mostly Cloudy
11:53 PM 73.9°F 57.0°F 55% 30.20 in 10.0 miles East 18.4 mph - N/A   Scattered Clouds